This demonstration page uses our WeatherBlox Daily Observations layout. Learn more.

39.92423, -83.80882

Hourly Observations for January 22, 2020

Temp ( °F °C ) Dew Point ( °F °C ) Humidity (%) Winds ( mph kmh ) Pressure ( in mb ) Visibility ( mi km ) Precip ( " mm )
12:56 am 00:56 Clear 18 -7.8 16 -8.9 92 92 S 3 6 30.5 1033 10 16.0934 0 0
1:56 am 01:56 Clear 16 -8.9 13 -10.6 88 88 SSE 5 7 30.48 1032 10 16.0934 0 0
2:56 am 02:56 Clear 18 -7.8 15 -9.4 88 88 SSE 7 11 30.47 1032 10 16.0934 0 0
3:56 am 03:56 Clear 18 -7.8 15 -9.4 88 88 S 3 6 30.47 1032 10 16.0934 0 0
4:56 am 04:56 Clear 13 -10.6 11 -11.7 92 92 SSE 5 7 30.45 1031 10 16.0934 0 0
5:56 am 05:56 Clear 18 -7.8 14 -10 84 84 SSE 7 11 30.43 1031 10 16.0934 0 0
6:56 am 06:56 Clear 18 -7.8 14 -10 84 84 S 6 9 30.43 1031 10 16.0934 0 0
7:56 am 07:56 Sunny 16 -8.9 13 -10.6 88 88 SSE 5 7 30.43 1031 10 16.0934 0 0
8:56 am 08:56 Sunny 20 -6.7 15 -9.4 81 81 SSE 7 11 30.43 1031 10 16.0934 0 0
9:56 am 09:56 Sunny 25 -3.9 18 -7.8 75 75 S 6 9 30.43 1031 10 16.0934 0 0
10:56 am 10:56 Sunny 29 -1.7 20 -6.7 69 69 S 8 13 30.45 1031 10 16.0934 0 0
11:56 am 11:56 Sunny 31 -0.6 20 -6.7 64 64 SSW 6 9 30.44 1031 10 16.0934 0 0
12:56 pm 12:56 Sunny 33 0.6 17 -8.3 52 52 SW 8 13 30.39 1029 10 16.0934 0 0
1:56 pm 13:56 Sunny 34 1.1 18 -7.8 52 52 SSE 5 7 30.37 1028 10 16.0934 0 0
2:56 pm 14:56 Sunny 34 1.1 19 -7.2 54 54 S 7 11 30.35 1028 10 16.0934 0 0
3:56 pm 15:56 Sunny 36 2.2 20 -6.7 52 52 S 6 9 30.34 1028 10 16.0934 0 0
4:56 pm 16:56 Sunny 34 1.1 22 -5.6 61 61 SSE 7 11 30.33 1027 10 16.0934 0 0
5:56 pm 17:56 Clear 33 0.6 22 -5.6 64 64 SSE 5 7 30.33 1027 10 16.0934 0 0
6:56 pm 18:56 Clear 28 -2.2 23 -5 81 81 ESE 7 11 30.33 1027 10 16.0934 0 0
7:56 pm 19:56 Clear 30 -1.1 23 -5 75 75 SE 7 11 30.33 1027 10 16.0934 0 0
8:56 pm 20:56 Clear 29 -1.7 24 -4.4 82 82 SE 7 11 30.32 1027 10 16.0934 0 0
9:56 pm 21:56 Clear 30 -1.1 24 -4.4 79 79 SSE 5 7 30.32 1027 10 16.0934 0 0
10:56 pm 22:56 Clear 28 -2.2 24 -4.4 85 85 SE 5 7 30.3 1026 10 16.0934 0 0
11:56 pm 23:56 Clear 30 -1.1 22 -5.6 72 72 SE 9 15 30.29 1026 10 16.0934 0 0

Powered by AerisWeather